Date,TemperatureHighF,TemperatureAvgF,TemperatureLowF,DewpointHighF,DewpointAvgF,DewpointLowF,HumidityHigh,HumidityAvg,HumidityLow,PressureMaxIn,PressureMinIn,WindSpeedMaxMPH,WindSpeedAvgMPH,GustSpeedMaxMPH,PrecipitationSumIn
2012-12-1,78,74,72,63,61,58,71,63,53,30.29,30.22,19,7,19,0.00
2012-12-2,79,75,73,64,62,60,71,65,58,30.33,30.24,20,8,21,0.00
2012-12-3,77,74,72,64,59,49,73,60,43,30.34,30.26,17,7,21,0.00
2012-12-4,77,74,71,62,58,50,74,59,46,30.33,30.24,18,6,19,0.00
2012-12-5,80,75,72,64,61,58,72,64,50,30.25,30.12,14,5,15,0.00
2012-12-6,79,75,70,68,65,61,87,73,57,30.12,29.99,18,4,22,0.00
2012-12-7,81,74,66,70,65,63,92,76,58,30.08,30.00,14,2,15,0.00
2012-12-8,81,75,67,72,68,64,92,78,62,30.13,30.05,15,3,15,0.00
2012-12-9,82,76,70,73,71,67,92,84,66,30.18,30.08,11,2,13,0.00
2012-12-10,84,77,69,74,71,66,92,83,68,30.12,29.99,17,4,18,0.00
2012-12-11,85,78,72,75,72,68,92,83,64,30.16,30.00,14,4,17,0.80
2012-12-12,73,72,72,71,70,69,94,93,92,30.15,30.12,0,0,0,0.10
2012-12-18,83,78,70,69,65,62,94,65,51,30.10,30.00,16,4,16,0.00
2012-12-19,81,72,60,65,60,54,84,69,40,30.18,30.09,11,2,12,0.00
2012-12-20,81,75,71,66,64,59,82,68,50,30.18,30.05,14,4,17,0.00
2012-12-21,71,62,50,66,41,28,86,49,26,30.26,30.05,22,6,22,0.00
2012-12-22,66,54,44,37,30,20,62,42,19,30.34,30.25,15,4,17,0.00
2012-12-23,71,60,49,55,45,34,76,59,44,30.33,30.23,11,2,12,0.00
2012-12-24,76,66,57,59,56,51,85,69,48,30.24,30.08,16,2,16,0.00
2012-12-25,78,69,59,63,59,56,91,72,51,30.14,30.02,14,3,16,0.00
2012-12-26,83,75,63,69,65,58,89,73,52,30.07,29.90,24,7,24,0.00
2012-12-27,71,60,52,58,49,41,90,69,34,30.17,30.06,13,2,15,0.00
2012-12-28,76,68,54,69,62,50,89,81,63,30.18,30.06,12,3,14,0.00
2012-12-29,81,75,61,72,68,53,89,78,63,30.19,30.00,21,6,21,0.00
2012-12-30,68,60,49,55,50,45,86,70,59,30.39,30.19,18,6,19,0.00
2012-12-31,73,70,66,60,56,52,67,62,55,30.41,30.28,18,7,18,0.00